Theta_e
284 284 284 285 286 287 287 287 286 284 286 291 292 299 298 299 300 300 305 310 310 318 321 322 323 325 326 327 328 328 328 327 327 329 331 331 332 333
284 283 284 285 285 286 286 287 287 286 283 290 292 293 294 295 297 297 297 300 304 310 316 318 319 321 322 323 324 324 325 325 327 328 331 331 331 331
283 283 283 284 284 285 286 286 286 286 283 287 290 291 292 293 294 296 298 298 299 304 309 315 317 318 320 321 321 322 323 324 325 327 328 330 329 330
283 283 283 284 284 284 284 284 284 286 285 283 287 288 289 291 292 294 296 297 299 301 306 308 313 316 318 319 319 319 319 319 321 323 325 327 328 328
282 282 283 283 283 284 284 284 284 285 285 284 284 287 288 290 290 291 293 296 298 300 303 305 307 310 315 317 317 317 316 316 317 318 319 321 323 325
283 284 284 284 284 284 284 284 284 284 284 283 284 285 286 288 289 289 290 294 296 298 300 301 304 307 313 315 315 314 313 314 316 316 316 317 317 320
283 284 285 286 287 287 286 286 285 284 284 283 283 284 285 286 286 289 289 291 294 298 298 299 302 305 309 313 314 311 312 315 315 315 316 316 315 316
282 283 284 285 286 287 288 289 288 286 285 284 284 283 284 286 287 287 288 288 287 296 295 295 300 301 309 317 315 314 312 313 314 313 314 314 314 314
281 282 282 283 285 284 286 287 287 289 289 287 285 285 286 288 288 287 287 288 289 293 295 295 299 299 304 313 312 312 312 311 312 312 312 312 311 311
281 282 282 283 284 284 284 284 285 285 285 286 286 287 288 289 289 288 287 288 290 292 296 291 297 300 306 311 312 311 311 311 311 311 311 311 310 310
281 282 282 283 284 285 283 282 282 283 286 287 289 290 290 291 290 289 286 285 284 287 292 293 295 297 301 305 316 310 310 310 310 311 311 310 309 309
280 281 282 281 283 284 282 282 280 281 282 283 284 285 287 288 290 289 287 285 285 284 290 290 292 294 293 300 306 315 315 310 310 310 310 310 309 315
278 277 278 281 282 283 283 281 280 282 283 283 283 284 285 285 286 287 289 287 286 285 291 292 291 293 295 297 300 307 316 315 313 311 309 309 308 312
275 276 278 280 281 281 280 281 282 282 280 281 286 288 285 285 286 287 288 289 290 290 291 290 293 297 296 296 297 311 315 315 314 312 312 311 307 308
276 277 278 278 278 277 278 279 279 277 278 277 283 285 286 286 287 287 289 290 290 291 291 291 289 291 297 294 296 299 310 311 313 311 313 313 312 310
274 271 275 275 275 275 275 275 275 276 276 276 276 278 287 286 286 287 287 288 287 288 291 291 291 291 293 296 295 298 299 305 310 311 312 313 313 313
271 269 270 270 270 271 272 273 274 275 274 274 275 276 278 288 288 289 289 288 286 286 287 289 291 292 295 295 292 294 298 299 308 310 309 309 311 311
269 267 267 267 267 268 269 271 272 273 273 273 274 274 275 277 282 288 288 287 286 286 288 289 290 289 290 293 295 292 294 295 309 309 309 308 307 310
266 266 266 266 266 267 268 269 271 272 273 272 272 272 273 274 276 279 286 287 286 288 289 290 289 289 286 285 291 294 292 297 303 307 308 308 307 308
266 265 265 266 266 266 267 268 270 272 272 271 271 272 272 272 273 274 277 284 286 288 288 290 290 292 291 289 290 294 288 297 300 305 306 305 301 297
265 265 266 265 266 267 267 268 269 271 271 271 271 271 271 271 271 273 276 281 287 287 287 288 291 295 294 291 289 287 286 289 300 306 302 298 295 292
265 265 266 266 266 266 267 268 268 271 270 270 270 270 270 270 270 271 273 276 277 278 280 281 285 286 288 294 294 289 285 286 289 289 290 292 291 290
265 265 265 265 266 266 267 268 268 270 270 269 269 270 270 269 270 271 271 273 276 276 277 280 283 285 285 286 287 285 286 285 285 286 285 289 290 290
Wind_Speed
5 5 5 5 4 5 5 6 6 5 5 4 3 4 6 7 9 11 11 13 16 17 20 22 21 19 17 19 20 19 17 18 17 18 17 16 17 21
5 6 6 5 5 6 6 6 8 9 9 5 5 8 12 12 15 17 16 16 17 18 19 20 21 22 19 21 22 21 20 18 19 18 20 20 19 20
7 8 8 8 6 6 6 7 8 10 14 12 11 12 15 15 15 14 13 15 12 18 19 17 21 23 24 22 22 23 22 21 20 23 22 22 22 20
8 8 9 7 9 9 8 10 10 11 12 19 13 12 16 15 16 17 14 13 14 16 19 21 18 22 24 25 24 23 23 22 20 21 22 23 24 23
10 11 10 10 10 10 11 10 10 11 12 14 14 12 12 12 14 15 16 16 13 18 23 24 25 22 23 26 25 25 25 24 23 20 21 21 24 23
11 11 12 13 13 13 12 13 12 12 13 14 15 13 12 12 12 12 13 12 13 14 17 20 21 21 22 29 28 27 26 26 26 25 23 24 24 23
12 12 13 15 19 18 11 12 13 13 12 14 16 14 13 11 13 11 13 12 14 12 13 13 12 12 15 24 25 27 29 30 28 27 25 25 26 24
12 12 12 17 17 24 26 29 25 17 17 14 16 19 20 15 13 12 12 12 16 10 14 15 12 14 14 14 22 28 29 31 29 28 27 28 27 28
12 12 13 11 17 15 22 30 30 34 33 22 24 25 25 17 16 17 15 15 17 12 14 15 13 16 16 15 22 27 30 30 31 30 30 29 28 26
13 14 15 16 16 18 18 19 20 20 21 18 24 28 25 21 20 17 19 19 18 16 15 20 14 15 13 15 23 27 29 30 32 32 31 30 30 29
12 13 14 14 20 26 19 20 21 19 22 35 38 41 40 40 33 16 15 16 20 16 13 18 15 15 14 13 14 26 30 33 35 34 33 30 29 29
12 12 17 16 23 25 18 18 21 19 20 21 21 29 35 32 41 29 19 18 19 18 15 18 15 13 15 15 14 13 16 32 36 36 34 34 31 17
8 9 10 20 23 24 25 16 20 23 23 21 21 21 21 20 18 18 22 21 19 21 13 18 18 17 19 14 14 16 15 16 18 21 31 32 32 28
7 8 10 20 22 22 19 24 28 26 13 17 14 12 12 14 15 16 21 21 21 24 18 22 12 13 14 14 13 10 15 15 15 16 16 21 27 32
7 12 16 18 19 15 20 22 21 11 12 11 13 11 11 13 16 18 20 22 24 23 21 22 19 19 13 10 10 11 12 13 14 14 15 16 17 14
10 8 12 14 14 15 13 12 10 11 12 12 12 13 12 13 15 15 14 14 16 14 21 24 23 18 16 13 11 12 14 11 14 14 14 13 13 15
8 6 7 8 9 10 10 11 10 11 11 11 12 12 11 11 11 10 11 12 13 13 14 15 20 21 18 16 11 13 12 15 10 13 12 13 13 14
6 7 8 9 9 10 11 12 11 15 12 13 12 12 11 11 11 10 11 12 14 14 15 14 12 15 16 15 18 14 13 15 8 13 13 13 12 13
8 8 8 8 9 10 11 12 13 13 14 11 11 12 12 10 13 9 9 12 15 15 15 12 13 15 16 20 14 30 16 15 15 10 12 12 10 11
7 8 8 8 9 9 10 11 12 12 12 12 12 12 12 12 11 11 10 14 12 13 13 15 16 15 17 17 11 9 7 18 18 12 10 6 2 6
7 8 8 8 9 8 9 10 11 12 14 14 13 13 13 13 13 13 12 16 14 14 15 14 15 20 8 3 4 1 3 7 9 13 7 7 6 3
6 7 7 8 8 9 8 9 10 11 12 13 14 14 14 13 14 14 13 9 6 4 2 1 3 6 7 12 13 6 3 2 13 26 21 6 8 8
5 6 7 8 8 9 9 9 9 9 11 12 12 13 14 14 14 13 13 12 9 8 5 2 2 3 2 4 6 4 8 3 3 7 9 18 16 16
Wind_Direction
284 276 266 266 260 257 254 253 254 291 295 283 288 19 351 333 328 328 327 345 332 276 250 244 244 236 219 214 220 222 225 223 217 221 214 216 215 213
270 265 264 265 262 257 252 251 247 253 266 280 273 311 309 304 301 306 298 304 297 297 286 255 244 240 225 216 215 218 222 222 213 219 215 215 214 214
265 265 266 264 261 257 254 254 255 252 263 270 271 279 281 278 280 280 282 284 281 278 281 281 253 244 236 223 216 216 219 216 212 211 217 215 214 215
267 263 268 264 261 259 257 257 258 258 266 275 274 277 273 277 277 274 271 269 273 272 270 268 273 256 243 234 222 214 214 213 208 209 210 214 213 209
270 270 270 270 268 265 260 260 260 262 265 271 276 276 276 276 276 273 272 269 262 264 268 267 264 267 256 240 230 220 213 212 208 206 202 206 210 205
266 267 268 265 266 267 263 265 264 265 268 271 276 276 271 270 267 272 269 260 264 257 253 255 261 252 246 245 236 226 217 213 214 210 210 204 198 205
275 271 268 266 266 263 264 258 254 254 258 265 272 275 268 266 256 259 262 270 262 256 257 254 260 254 242 241 241 226 219 218 214 213 206 199 193 195
284 281 279 280 277 278 276 272 265 263 259 260 265 266 267 264 260 259 260 259 265 239 252 255 246 248 244 234 226 226 218 222 215 210 205 201 199 201
290 288 285 280 284 279 275 273 270 267 262 265 267 259 269 257 260 260 256 257 259 255 277 262 229 241 237 233 222 216 216 214 212 209 203 202 198 200
290 286 282 283 279 280 277 272 266 262 261 258 259 267 263 266 256 252 254 259 262 261 246 252 245 251 235 231 217 212 212 213 212 212 207 204 205 202
295 287 284 283 287 291 285 282 280 274 268 266 263 263 262 261 257 258 243 241 249 249 244 250 246 258 247 255 229 209 213 209 213 213 210 203 202 204
299 301 301 298 298 294 288 286 283 284 280 274 265 262 262 256 252 243 243 246 245 248 232 246 247 253 257 247 252 235 211 214 214 213 211 207 201 207
315 315 309 306 303 302 299 294 290 293 287 283 265 259 248 244 244 239 237 235 241 243 233 238 237 234 234 275 224 225 217 214 215 216 214 208 200 203
323 302 304 313 322 316 316 302 308 310 291 290 259 268 245 240 239 236 237 234 234 245 232 258 274 232 236 247 236 241 210 205 205 210 206 208 210 210
317 330 327 332 329 322 318 327 325 314 309 307 309 263 241 244 248 241 234 229 234 234 233 250 241 271 262 268 252 243 229 197 199 197 203 202 203 204
360 335 333 335 332 332 328 327 329 318 330 324 317 313 268 245 240 238 234 224 228 227 225 233 241 236 255 253 257 265 239 274 195 199 201 205 205 208
3 337 340 344 341 339 336 339 335 325 344 333 329 318 316 269 226 215 220 225 230 231 228 226 235 237 248 251 245 256 255 273 206 192 186 202 207 207
10 360 349 349 341 340 341 339 329 343 346 343 330 320 317 310 301 229 222 224 229 230 233 224 223 222 232 244 229 244 255 266 236 185 190 199 208 210
21 3 351 345 336 341 342 332 338 348 343 329 332 328 327 326 324 299 256 222 223 227 230 218 210 214 216 231 229 211 237 246 266 193 188 196 206 206
15 357 344 336 335 338 336 331 337 344 344 336 336 336 342 336 330 321 298 257 231 227 224 220 219 216 215 221 217 201 197 233 230 206 189 179 119 70
4 356 342 334 326 329 332 325 330 348 348 339 340 345 349 342 334 327 316 306 229 225 222 220 224 228 226 143 162 152 228 331 206 190 173 170 169 151
358 347 341 330 324 321 328 325 331 341 349 347 344 347 344 343 340 336 333 344 358 3 14 297 196 182 192 204 211 187 257 79 58 63 49 78 165 184
353 337 331 328 325 323 324 330 331 336 351 349 347 346 342 344 342 342 340 340 14 16 17 359 91 98 82 76 117 139 120 75 56 70 50 38 55 66